User: anonymous   Login
Location: Edinburgh
(55.9500°N, 3.1600°W)
Time: 18:54:59
(UTC+01:00)
Language:

ESTCUBE 1 - Orbit

View from above orbital plane
View from above orbital plane
View from above satellite
View from above satellite

Ground track
Ground track

The orbit data is extracted from the following two-line orbital elements,

1 39161U 13021C   24147.17868184  .00002865  00000-0  42003-3 0  9991
2 39161  97.8287 214.3136 0007683 305.9019  54.1478 14.76303691593886
Epoch (UTC): 26 May 2024 04:17:18
Eccentricity: 0.0007683
inclination: 97.8287°
perigee height: 635 km
apogee height: 646 km
right ascension of ascending node: 214.3136°
argument of perigee: 305.9019°
revolutions per day: 14.76303691
mean anomaly at epoch: 54.1478°
orbit number at epoch: 59388

The dashed part of the orbit path shows where the satellite is in the earth's shadow,  

DLR